Location: Baia Mare
(47.6567°N, 23.5850°E)
Time: 00:27:53
(UTC+03:00)

ISS - Pass Details

Date: 21 July 2018
Orbit: 402 x 408 km, 51.6° (Epoch: 16 July)

Event Time Altitude Azimuth Distance (km) Brightness Sun altitude
Rises 04:00:21 0° 293° (WNW) 2,331 -0.1 -14.2°
Reaches altitude 10° 04:02:28 10° 288° (WNW) 1,468 -1.2 -13.9°
Maximum altitude 04:05:41 53° 211° (SSW) 506 -3.8 -13.6°
Drops below altitude 10° 04:08:53 10° 133° (SE) 1,463 -1.1 -13.3°
Sets 04:10:59 0° 129° (SE) 2,321 0.0 -13.1°
